Regional Weather Roundup
Issued by NWS Bismarck, ND

Home | Current Version | Previous Version | Text Only | Print | Product List | Glossary On
Versions: 1 2 3 4 5 6 7 8 9 10 11 12 13 14 15 16 17 18 19 20 21 22 23 24 25 26 27 28 29 30 31 32 33 34 35 36 37 38 39 40 41 42 43 44 45 46 47 48 49 50
000
ASUS43 KBIS 141310
RWRBIS

NWR BROADCAST TEXT
NATIONAL WEATHER SERVICE BISMARCK ND
800 AM CDT MON JUL 14 2014

NOTE: "FAIR" INDICATES FEW OR NO CLOUDS BELOW 12,000 FEET WITH NO
SIGNIFICANT WEATHER AND/OR OBSTRUCTIONS TO VISIBILITY.


CITY           SKY/WX    TMP DP  RH WIND       PRES   REMARKS
WILLISTON      SUNNY     54  46  74 N12       30.32R
MINOT          MOSUNNY   54  48  80 NW14      30.24R
MINOT AFB      MOSUNNY   53  51  91 N13       30.24R
BISMARCK       PTSUNNY   57  49  74 NW13      30.23R
DICKINSON      SUNNY     51  47  86 NW8       30.28R
GARRISON         N/A     53  49  86 N9        30.25R
HETTINGER ARPT SUNNY     51  46  83 NW6       30.29R
JAMESTOWN      CLOUDY    53  47  79 N21G26    30.14R
CARRINGTON     CLOUDY    50  50 100 N13G20    30.18R
CROSBY           N/A     50  50 100 N10       30.33R
HARVEY         FAIR      50  46  87 N12       30.20R
HAZEN          FAIR      54  48  82 N14G20    30.26R
LINTON         PTSUNNY   54  50  87 NW10      30.20R
MANDAN         PTSUNNY   54  48  82 N12       30.24R
RUGBY          PTSUNNY   50  46  87 N8        30.21R
STANLEY          N/A     54  50  87 N10       30.29R
TIOGA          CLOUDY    50  50 100 N10       30.34R
WATFORD CITY   FAIR      52  48  87 NW6       30.29R
$$

CITY           SKY/WX    TMP DP  RH WIND       PRES   REMARKS
GRAND FORKS    MOSUNNY   51  46  83 NW18G26   30.09R
GRAND FORKS AF MOSUNNY   51  49  90 N18G25    30.11R
DEVILS LAKE    CLOUDY    52  43  71 N18       30.15R
FARGO          PTSUNNY   52  46  80 N18G30    30.07R
CANDO          CLOUDY    50  46  87 N17G23    30.19R
CAVALIER       PTSUNNY   50  46  87 NW21      30.12R
GRAFTON        FAIR      50  46  87 NW20G26   30.10R
GWINNER        SUNNY     55  46  71 N14       30.12R
LANGDON        CLOUDY    50  46  87 N14       30.15R
ROLLA          CLOUDY    48  46  93 N16       30.21R
WALHALLA         N/A     50  50 100 NW16        N/A
$$

CITY           SKY/WX    TMP DP  RH WIND       PRES   REMARKS
ABERDEEN       CLOUDY    56  48  74 NW16      30.13R
MOBRIDGE       SUNNY     55  48  77 N14       30.18R
BUFFALO          N/A     53  44  71 N12       30.24R
RAPID CITY     SUNNY     57  45  64 N8        30.30R
SIDNEY         SUNNY     55  46  71 NW6       30.34R
GLENDIVE       SUNNY     54  45  71 NW8       30.34R
$$

CITY           SKY/WX    TMP DP  RH WIND       PRES   REMARKS
BILLINGS       MOSUNNY   60  40  47 NE10      30.32S
REGINA         SUNNY     52  48  87 N6        30.36R
ESTEVAN        MOSUNNY   52  48  87 N10       30.32R
$$




USA.gov is the U.S. government's official web portal to all federal, state and local government web resources and services.